Regional Weather Roundup
Issued by NWS

Home | Current Version | Previous Version | Graphics & Text | Print | Product List | Glossary On
Versions: 1 2 3 4 5 6 7 8 9 10 11 12 13 14 15 16 17 18 19 20 21 22 23 24 25 26 27 28 29 30 31 32 33 34 35 36 37 38 39 40 41 42 43 44 45 46 47 48 49 50
000
ASUS43 KBIS 032002
RWRND

NORTH DAKOTA REGIONAL WEATHER ROUNDUP
NATIONAL WEATHER SERVICE BISMARCK ND
300 PM CDT FRI JUL 03 2015

NOTE: "FAIR" INDICATES FEW OR NO CLOUDS BELOW 12,000 FEET WITH NO
SIGNIFICANT WEATHER AND/OR OBSTRUCTIONS TO VISIBILITY.


NDZ001>003-009>011-017-032100-
NORTHWEST NORTH DAKOTA

CITY           SKY/WX    TMP DP  RH WIND       PRES   REMARKS
WILLISTON      SUNNY     86  56  35 S8        29.94F
MINOT          CLOUDY    81  64  56 VRB3      29.94F HAZE
$$

NDZ018>021-031>035-040>046-032100-
SOUTHWEST NORTH DAKOTA

CITY           SKY/WX    TMP DP  RH WIND       PRES   REMARKS
BISMARCK       MOSUNNY   81  61  50 CALM      29.97F HAZE
DICKINSON      MOSUNNY   80  60  50 S8        29.97F
GARRISON         N/A     79  65  62 S7        29.96F
HETTINGER ARPT MOSUNNY   81  57  43 SE3       30.00F
$$

NDZ004>008-012>016-024-026-027-054-032100-
NORTHEAST NORTH DAKOTA

CITY           SKY/WX    TMP DP  RH WIND       PRES   REMARKS
GRAND FORKS    PTSUNNY   81  62  52 N5        29.91F HAZE
GRND FRKS AFB  SUNNY     80  63  56 N6        29.92F HAZE
DEVILS LAKE    MOSUNNY   81  59  47 NE7       29.94S
$$

NDZ022-023-025-028>030-036>039-047>053-032100-
SOUTHEAST NORTH DAKOTA

CITY           SKY/WX    TMP DP  RH WIND       PRES   REMARKS
FARGO          SUNNY     83  63  50 N7        29.92S HAZE
JAMESTOWN      CLOUDY    81  59  47 N6        29.95S HAZE
$$



USA.gov is the U.S. government's official web portal to all federal, state and local government web resources and services.